DELTA 1 DEB, 7150

Orbit data source: Space-Track

DELTA 1 DEB, 7150 is space debris in SSO originally from a launch on Tue, 06 Nov 1973 UTC launched from the Air Force Western Test Range (AFWTR). Debris objects in space refer to the collection of defunct objects orbiting the Earth. Examples of debris include non-operational satellites, rocket bodies, and fragments generated from explosions, collisions, or faulty payload assembly.

Loading next visibility...
Identifier
7150, 1973-086DQ
Orbit
SSO
Country
Flag of USUS
Related business
Manufacturer
Unknown
Mission
Spacecraft
Bus & Motor
Unknown
Mass
Unknown
Launch date (UTC)
1973-11-06 (52 years ago)
Launch vehicle
Unknown
Launch site
Air Force Western Test Range (AFWTR)
Object type
Payload
Rocket body
Debris
Shape & HBR
Unknown shape, 0.2 m
Radar Cross Section
Medium (>0.1 m² and <1 m²)

Expand to show TLE details & history
Last TLE update: 1 day ago

TLE from 1 day ago
0 DELTA 1 DEB
1 07150U 73086DQ  25291.87180866  .00000293  00000-0  29164-2 0  9998
2 07150 101.8689 263.9144 0134842 344.9715  29.5146 12.26141937317534
Epoch: 2025-10-18T20:55Z
TLE epoch observation values (Epoch: 2025-10-18T20:55:24.268Z)
Latitude
14.90385°
Longitude
-80.72411°
Altitude
1,474.872 km
Speed
7.168 km/s
True Right ascension
17h 22m 53s
True Declination
14° 49' 35"
Sunlit
Object was in daylight at epoch
Visualization orbit readout
Latitude
Unknown
Longitude
Unknown
Altitude
Unknown
Speed
Unknown
Apparent Right ascension
Unknown
Apparent Declination
Unknown
Sunlit
N/A
Visualization observer readout
Local Sidereal Time
16:37:01
Azimuth
Unknown
Elevation
Unknown
Doppler factor
Unknown
Orbital elements
Apogee altitude
1,670.573 km
Perigee altitude
1,456.4 km
Semi-major axis
7,941.623 km
Eccentricity
0.01348
Inclination
101.8689°
RAAN
263.9144°
Arg. of periapsis
344.9715°
True anomaly
30.28712°
Mean anomaly
29.5146°
Eccentric anomaly
29.89972°
Mean motion
3.06676 °/min
Orbital period
117.39 mins
BSTAR
0.0029164
Loading maneuver chart data...
Computing Atmospheric mass density...
Loading historical data...
Loading historical data...
Loading historical data...
Loading historical data...
Loading historical data...
Loading historical data...
Loading historical data...

Documentation

Showing up to 5 results
|